{"data":{"norad_id":69938,"epoch":"2026-09-20T03:45:26.108352Z","epoch_age_seconds":47461,"freshness":"FRESH","line1":"1 69938U 26156BX  26263.15655218  .00001735  00000+0  17327-3 0  9995","line2":"2 69938  97.7412 162.4163 0008089 264.3446  95.6851 14.92779732 11168","mean_motion":14.92779732,"eccentricity":0.0008089,"inclination_deg":97.7412,"raan_deg":162.4163,"arg_perigee_deg":264.3446,"mean_anomaly_deg":95.6851,"bstar":0.00017327,"rev_number":1116,"period_min":96.464332220716,"perigee_km":583.63685725383,"apogee_km":594.90873282024,"semimajor_km":6967.409795037,"source":"CELESTRAK","updated_at":"2026-09-20T09:00:25.209125Z"}}